User: anonymous   Login
Location: Standeford and Andreas Observatories
(44.1397°N, 93.9969°W)
Time: 00:51:56
(UTC-06:00)
Language:

Cosmos 1500 Rocket - Orbit

View from above orbital plane
View from above orbital plane
View from above satellite
View from above satellite

Ground track
Ground track

The orbit data is extracted from the following two-line orbital elements,

1 14373U 83099B   14354.16170619  .00000407  00000-0  46688-4 0  8520
2 14373 082.5401 014.8116 0019692 353.5463 069.8669 14.83279123685954
Epoch (UTC): 20 December 2014 03:52:51
Eccentricity: 0.0019692
inclination: 82.5401°
perigee height: 605 km
apogee height: 633 km
right ascension of ascending node: 14.8116°
argument of perigee: 353.5463°
revolutions per day: 14.83279123
mean anomaly at epoch: 69.8669°
orbit number at epoch: 68595

The dashed part of the orbit path shows where the satellite is in the earth's shadow,  

DLR